Find Weili Kongjian 02-05

NORAD ID: 68354 Int'l Des: 2026-060 Owner: CENTI Country: CN Constellation: future-navigation operational
LEOCIRCULAR

当前视图

正在加载3D地球...

About Weili Kongjian 02-05

Weili Kongjian 02-05 (NORAD 68354) is a future-navigation constellation satellite launched Mar 22, 2026 by CENTI of CN. It operates in LEO, CIRCULAR orbit with a mass of 140.00 kg.

关于 Weili Kongjian 02-05

正在加载描述...

即将过境

Passes for default location (London). Set your location on the main map for personalized predictions.

高度历史

Loading altitude history...

两行轨道根数

1 68354U 26060E 26173.57496507 .00000504 00000-0 13008-3 0 9996
2 68354 54.9767 15.3300 0011282 311.1923 48.8098 14.64536278 13548
Epoch: Jun 22, 2026 • Age: 17 hours

当前状态

高度 686.0 km
速度 7.51 km/s
星下点 15.96°N, 165.86°E
发射日期 Mar 22, 2026
运行时间 0.2 years
类型 other

技术详情

分类 Payload
质量 140.00 kg
干质量 140.00 kg
总质量 140.00 kg
长度 1.00 m
直径 0.50 m
跨度 2.00 m
形状 Box + 2 pan
制造商 DFHS
平台类型 WK01
阶段状态 In Orbit
所有者/国家 CENTI/CN

Most Searched